[[{"header":{"parameterUnit":"m.s-1","parameterCategory":1,"la1":30.2991,"la2":30.254,"lo1":-89.0895,"lo2":-89.0444,"dy":0.0017,"dx":0.0017,"nx":28,"ny":28,"refTime":"2025-11-14T03:00:00:Z","depth":0,"parameterNumber":2,"parameterNumberName":"U-component_of_WINDS"},"data":[0,0,0,0,0,0,0,0,0,0,0,0,0,0,0,0,0,0,0,0,0,0,0,0,0,0,0,0,0,0,0,0,0,0,0,0,0,0,0,0,0,0,0,0,0,0,0,0,0,0,0,0,0,0,0,0,0,0,0.1624,0.1624,0,0.1566,0.1565,0.1564,0.1517,0.1516,0.1516,0.1515,0.1454,0.1453,0.1451,0,0,0,0,0,0,0,0,0,0,0,0,0,0.1694,0.1693,0.1624,0.1624,0.1623,0.1566,0.1565,0.1564,0.1517,0.1516,0.1516,0.1515,0.1454,0.1453,0.1451,0,0,0,0,0,0,0,0,0,0,0,0,0,0.1653,0.1693,0.1625,0.1593,0.1589,0.1566,0.1565,0.1564,0.1517,0.1516,0.1516,0.1515,0.1455,0.1453,0.1451,0.1455,0,0,0.1446,0.1445,0,0,0,0,0,0,0,0,0.1655,0.165,0.1598,0.1595,0.1591,0.1548,0.1567,0.1527,0.1517,0.1544,0.1515,0.1515,0.1486,0.1481,0.1472,0.1452,0.1449,0.1445,0.1444,0.1444,0.1443,0,0,0,0,0,0,0,0.1658,0.1652,0.1601,0.1597,0.1593,0.1581,0.1574,0.1559,0.152,0.1542,0.1538,0.1532,0.1483,0.1474,0.147,0.1448,0.1446,0.1444,0.1443,0.1442,0.1429,0.143,0,0,0,0,0,0,0.1666,0.1655,0.1603,0.1599,0.1622,0.158,0.1573,0.1562,0.152,0.1513,0.1533,0.153,0.1477,0.1472,0.1468,0.147,0.1444,0.1442,0.1441,0.1428,0.1429,0.143,0,0,0,0,0,0,0.1668,0.1662,0.1605,0.1626,0.1618,0.158,0.1569,0.1562,0.1552,0.1513,0.1505,0.153,0.1476,0.147,0.1459,0.1467,0.1441,0.144,0.1427,0.1428,0.1429,0.1474,0,0,0,0,0,0,0.167,0.1663,0.1664,0.1627,0.1617,0.1598,0.1569,0.1561,0.1549,0.1545,0.1508,0.1502,0.1475,0.1461,0.1457,0.1464,0.1438,0.1426,0.1428,0.1429,0.1472,0.1476,0.1481,0,0,0,0,0,0.1673,0.1678,0.1664,0.1658,0.1618,0.1599,0.1593,0.1563,0.155,0.1551,0.1526,0.1503,0.1467,0.1461,0.1455,0.1462,0.1426,0.1427,0.1429,0.147,0.1476,0.148,0,0,0,0,0,0,0.1717,0.1673,0.1657,0.1651,0.1629,0.1591,0.1591,0.157,0.1551,0.1548,0.1511,0.1503,0.1496,0.1477,0.1471,0.1463,0.1443,0.1444,0.1476,0.1481,0.1486,0.1491,0.1437,0,0,0,0,0,0.1726,0.1714,0.1676,0.1674,0.1664,0.163,0.162,0.1599,0.1574,0.1565,0.1539,0.1516,0.1499,0.1489,0.1471,0.1468,0.146,0.147,0.1475,0.1479,0.148,0.1478,0.1482,0.1435,0.1435,0.1435,0,0,0.1745,0.1719,0.1714,0.1683,0.1663,0.1652,0.1622,0.1611,0.1602,0.1563,0.1551,0.1531,0.1502,0.1496,0.1491,0.148,0.1491,0.1481,0.1484,0.1483,0.148,0.1485,0.1489,0.1436,0.1436,0.1436,0,0,0.1773,0.1752,0.1749,0.1731,0.1702,0.1679,0.1678,0.1643,0.1629,0.1616,0.1587,0.1575,0.1547,0.1528,0.1515,0.1537,0.1516,0.1532,0.1556,0.1555,0.1559,0.1562,0.1571,0.1574,0.1533,0.1534,0.1534,0,0.18,0.1782,0.175,0.1741,0.1729,0.1693,0.169,0.1673,0.1639,0.1631,0.1619,0.1584,0.1562,0.1551,0.1557,0.1547,0.1545,0.1537,0.1561,0.1563,0.1566,0.1574,0.1577,0.1536,0.1536,0.1535,0.1535,0,0.1817,0.1805,0.1806,0.1776,0.1763,0.1757,0.1724,0.1715,0.1694,0.1673,0.1661,0.1633,0.161,0.1606,0.1585,0.1592,0.1586,0.1568,0.1547,0.1573,0.1581,0.1583,0.1539,0.1538,0.1538,0.1537,0,0,0.1872,0.1825,0.1826,0.1812,0.1778,0.1768,0.176,0.1738,0.1732,0.171,0.1703,0.168,0.1663,0.1649,0.1626,0.1624,0.1645,0.1606,0.1605,0.1616,0.1652,0.1667,0.1671,0.163,0.163,0.1631,0.1654,0,0.1896,0.1882,0.1853,0.1847,0.1836,0.1802,0.1795,0.1773,0.1752,0.174,0.1716,0.1701,0.168,0.1671,0.1668,0.1643,0.1652,0.1641,0.1623,0.1623,0.1633,0.1674,0.169,0.1713,0.1657,0.1657,0.1657,0,0.1923,0.1904,0.1898,0.1865,0.1859,0.1854,0.1832,0.182,0.1794,0.1779,0.1763,0.1739,0.1728,0.1709,0.1695,0.1688,0.1679,0.1666,0.1666,0.1664,0.1643,0.1675,0.172,0.1724,0.1661,0.1661,0.1661,0,0.1966,0.1938,0.1931,0.192,0.1882,0.1879,0.1863,0.1836,0.1825,0.1806,0.1798,0.1778,0.1767,0.1751,0.1721,0.1709,0.1711,0.1688,0.1699,0.1699,0.1701,0.1702,0.1747,0.1693,0.1693,0.1693,0.1693,0,0.1996,0.1994,0.195,0.1946,0.1943,0.1909,0.1906,0.1886,0.1864,0.1855,0.1823,0.1816,0.1776,0.1764,0.174,0.1733,0.1728,0.1716,0.171,0.1719,0.1721,0.1714,0.1712,0.1694,0.1694,0.1694,0.1694,0,0.2044,0.2015,0.2005,0.1969,0.196,0.1959,0.1929,0.1923,0.1901,0.189,0.1886,0.185,0.1834,0.1803,0.1777,0.1762,0.176,0.1749,0.1769,0.1766,0.1779,0.1778,0.1822,0.1827,0.1769,0.1769,0.177,0,0.2066,0.2064,0.2028,0.2021,0.2006,0.1994,0.1983,0.1949,0.1939,0.191,0.1908,0.189,0.1874,0.185,0.1821,0.1802,0.1791,0.1807,0.1788,0.1798,0.1793,0.1794,0.1794,0.1812,0.1813,0.1814,0.1814,0,0.2109,0.2095,0.2081,0.2062,0.2049,0.2032,0.2014,0.2009,0.1971,0.1961,0.1945,0.1932,0.1907,0.189,0.1866,0.1849,0.1826,0.1821,0.1822,0.1833,0.1846,0.184,0.1783,0.182,0.1819,0.1819,0.1819,0.1818,0.2146,0.2143,0.2118,0.2103,0.2085,0.2069,0.2062,0.2039,0.2025,0.2003,0.1984,0.197,0.1944,0.1911,0.1895,0.1883,0.1872,0.1874,0.1875,0.1876,0.1881,0.1846,0.1879,0.1878,0.1878,0.1878,0.1878,0,0.2189,0.2171,0.2158,0.2133,0.2122,0.2101,0.2079,0.2071,0.2059,0.2037,0.2022,0.2004,0.1987,0.1958,0.1938,0.1935,0.1923,0.1931,0.1931,0.1928,0.1891,0.1893,0.194,0.194,0.194,0.194,0.194,0.194,0.221,0.2204,0.2187,0.2172,0.2153,0.214,0.213,0.2114,0.2097,0.2079,0.2065,0.2046,0.2021,0.2,0.1983,0.1975,0.197,0.1981,0.1969,0.1936,0.193,0.1925,0.1926,0.198,0.198,0.2007,0.2007,0.2008]},{"header":{"parameterUnit":"m.s-1","parameterCategory":1,"la1":30.2991,"la2":30.254,"lo1":-89.0895,"lo2":-89.0444,"dy":0.0017,"dx":0.0017,"nx":28,"ny":28,"refTime":"2025-11-14T03:00:00:Z","depth":0,"parameterNumber":3,"parameterNumberName":"V-component_of_WINDS"},"data":[0,0,0,0,0,0,0,0,0,0,0,0,0,0,0,0,0,0,0,0,0,0,0,0,0,0,0,0,0,0,0,0,0,0,0,0,0,0,0,0,0,0,0,0,0,0,0,0,0,0,0,0,0,0,0,0,0,0,-1.3782,-1.3783,0,-1.3853,-1.3854,-1.3855,-1.3835,-1.3833,-1.3832,-1.3831,-1.3902,-1.3905,-1.3909,0,0,0,0,0,0,0,0,0,0,0,0,0,-1.3629,-1.3632,-1.3782,-1.3783,-1.3784,-1.3853,-1.3854,-1.3855,-1.3835,-1.3833,-1.3832,-1.383,-1.3901,-1.3905,-1.3909,0,0,0,0,0,0,0,0,0,0,0,0,0,-1.3698,-1.3633,-1.3782,-1.3782,-1.3783,-1.3853,-1.3854,-1.3856,-1.3836,-1.3833,-1.3831,-1.3829,-1.39,-1.3905,-1.3909,-1.3983,0,0,-1.3924,-1.3926,0,0,0,0,0,0,0,0,-1.3694,-1.3703,-1.3782,-1.3783,-1.3784,-1.3833,-1.3827,-1.3898,-1.3836,-1.3816,-1.3831,-1.3828,-1.3881,-1.3887,-1.3905,-1.3986,-1.3989,-1.3925,-1.3928,-1.393,-1.3931,0,0,0,0,0,0,0,-1.3689,-1.37,-1.381,-1.3783,-1.3784,-1.3779,-1.3786,-1.384,-1.386,-1.3817,-1.3816,-1.3825,-1.3881,-1.3901,-1.3907,-1.399,-1.3925,-1.3929,-1.3932,-1.3934,-1.4138,-1.414,0,0,0,0,0,0,-1.3684,-1.3696,-1.3808,-1.3813,-1.3732,-1.3784,-1.3792,-1.3819,-1.3859,-1.3863,-1.3827,-1.3824,-1.3893,-1.3901,-1.3909,-1.4,-1.393,-1.3934,-1.3937,-1.4135,-1.4138,-1.4141,0,0,0,0,0,0,-1.368,-1.3694,-1.3805,-1.3754,-1.3768,-1.3789,-1.382,-1.3822,-1.3842,-1.3866,-1.3869,-1.3843,-1.3892,-1.3902,-1.3965,-1.4002,-1.3937,-1.3941,-1.4132,-1.4136,-1.4139,-1.418,0,0,0,0,0,0,-1.3676,-1.3693,-1.3721,-1.3755,-1.3771,-1.386,-1.3822,-1.3825,-1.385,-1.3847,-1.3882,-1.3886,-1.3891,-1.3958,-1.397,-1.4007,-1.3945,-1.4129,-1.4134,-1.4138,-1.4176,-1.4185,-1.4193,0,0,0,0,0,-1.3671,-1.3729,-1.3722,-1.3736,-1.3806,-1.3863,-1.3872,-1.3877,-1.3853,-1.3882,-1.3898,-1.3885,-1.3996,-1.3965,-1.3978,-1.4017,-1.4127,-1.4132,-1.4138,-1.4172,-1.4183,-1.4193,0,0,0,0,0,0,-1.3698,-1.3733,-1.3726,-1.3797,-1.3827,-1.3859,-1.3895,-1.3888,-1.3925,-1.392,-1.3924,-1.3932,-1.3997,-1.4013,-1.3978,-1.4092,-1.4058,-1.4066,-1.4079,-1.409,-1.4098,-1.4094,-1.3949,0,0,0,0,0,-1.3712,-1.3755,-1.3783,-1.3843,-1.3858,-1.3874,-1.3899,-1.39,-1.3931,-1.3944,-1.3964,-1.3994,-1.4036,-1.4064,-1.4103,-1.4178,-1.4186,-1.4211,-1.422,-1.4226,-1.4234,-1.4277,-1.4289,-1.4159,-1.4159,-1.4159,0,0,-1.3742,-1.3766,-1.3793,-1.3849,-1.3872,-1.3917,-1.3885,-1.3933,-1.3967,-1.3951,-1.4012,-1.4028,-1.4063,-1.4132,-1.4164,-1.4148,-1.4272,-1.4234,-1.4239,-1.4243,-1.4284,-1.4296,-1.4307,-1.4163,-1.4162,-1.4162,0,0,-1.3819,-1.3841,-1.3895,-1.3919,-1.3955,-1.3966,-1.3979,-1.4012,-1.4023,-1.4084,-1.4074,-1.4114,-1.4185,-1.4211,-1.4233,-1.4322,-1.4312,-1.4334,-1.4379,-1.442,-1.4431,-1.444,-1.4473,-1.4485,-1.4342,-1.4342,-1.4342,0,-1.3851,-1.3918,-1.3923,-1.3973,-1.3998,-1.3987,-1.4042,-1.4065,-1.4112,-1.413,-1.4111,-1.4202,-1.4224,-1.43,-1.4322,-1.434,-1.4355,-1.4331,-1.4429,-1.4438,-1.4447,-1.4479,-1.4491,-1.4344,-1.4344,-1.4344,-1.4343,0,-1.3957,-1.4004,-1.4043,-1.409,-1.412,-1.4171,-1.4184,-1.4214,-1.4213,-1.4225,-1.4289,-1.4316,-1.4361,-1.4379,-1.4378,-1.4456,-1.4445,-1.4427,-1.4394,-1.4462,-1.4492,-1.4504,-1.4348,-1.4347,-1.4346,-1.4346,0,0,-1.4054,-1.4104,-1.4118,-1.414,-1.418,-1.4216,-1.4268,-1.4313,-1.4339,-1.4372,-1.4417,-1.4478,-1.4463,-1.4488,-1.449,-1.4526,-1.4597,-1.4504,-1.4505,-1.4522,-1.4687,-1.4701,-1.4715,-1.459,-1.4593,-1.4594,-1.4685,0,-1.4136,-1.4228,-1.4234,-1.4317,-1.4361,-1.4352,-1.4397,-1.4426,-1.444,-1.4479,-1.4493,-1.4538,-1.4513,-1.4529,-1.4564,-1.4581,-1.463,-1.4574,-1.4632,-1.4634,-1.4626,-1.4731,-1.4745,-1.4829,-1.4696,-1.4698,-1.47,0,-1.4244,-1.4282,-1.437,-1.4405,-1.4424,-1.4464,-1.4508,-1.4545,-1.4579,-1.4586,-1.4616,-1.4613,-1.4666,-1.463,-1.4705,-1.4667,-1.4691,-1.4703,-1.4706,-1.4713,-1.4672,-1.4742,-1.4856,-1.4869,-1.4718,-1.4716,-1.4715,0,-1.4308,-1.438,-1.4443,-1.4462,-1.4504,-1.4533,-1.4552,-1.4584,-1.4611,-1.4649,-1.4667,-1.471,-1.4734,-1.4767,-1.4776,-1.4749,-1.4852,-1.4816,-1.486,-1.486,-1.4883,-1.4882,-1.5005,-1.4896,-1.4896,-1.4896,-1.4895,0,-1.44,-1.4454,-1.4473,-1.4511,-1.4572,-1.4579,-1.464,-1.4656,-1.4685,-1.4727,-1.4721,-1.476,-1.4769,-1.4811,-1.4818,-1.488,-1.489,-1.4898,-1.49,-1.49,-1.4899,-1.4917,-1.4912,-1.4899,-1.4898,-1.4898,-1.4897,0,-1.4482,-1.4496,-1.4564,-1.4599,-1.4609,-1.4653,-1.4683,-1.472,-1.4733,-1.4787,-1.48,-1.482,-1.4869,-1.4881,-1.4938,-1.4943,-1.5017,-1.5012,-1.5007,-1.5007,-1.5052,-1.5048,-1.5191,-1.5211,-1.5088,-1.5089,-1.509,0,-1.454,-1.4582,-1.4622,-1.4651,-1.4671,-1.4716,-1.4745,-1.4753,-1.4783,-1.4826,-1.4859,-1.4907,-1.4946,-1.5025,-1.5045,-1.5089,-1.5086,-1.5133,-1.5093,-1.5092,-1.5089,-1.5088,-1.5093,-1.5142,-1.5143,-1.5144,-1.5145,0,-1.4643,-1.4649,-1.469,-1.4736,-1.477,-1.4806,-1.484,-1.4863,-1.4876,-1.4911,-1.4961,-1.4992,-1.5052,-1.51,-1.5146,-1.5165,-1.5158,-1.5157,-1.517,-1.5172,-1.5167,-1.5172,-1.503,-1.5154,-1.5153,-1.5153,-1.5152,-1.5152,-1.4717,-1.4754,-1.4789,-1.4837,-1.4863,-1.4896,-1.4934,-1.4952,-1.4994,-1.5045,-1.5046,-1.5102,-1.5136,-1.5196,-1.5218,-1.5262,-1.5248,-1.5266,-1.5271,-1.5276,-1.5281,-1.5159,-1.527,-1.527,-1.5269,-1.5269,-1.5269,0,-1.4821,-1.4843,-1.4887,-1.4936,-1.4973,-1.4963,-1.5001,-1.5033,-1.5083,-1.5115,-1.5154,-1.5213,-1.5261,-1.5285,-1.5332,-1.5362,-1.5361,-1.5375,-1.5373,-1.5378,-1.529,-1.5275,-1.5376,-1.5376,-1.5376,-1.5376,-1.5376,-1.5376,-1.488,-1.4944,-1.4954,-1.5032,-1.5054,-1.5109,-1.5131,-1.5162,-1.5188,-1.5255,-1.5294,-1.531,-1.534,-1.5389,-1.5433,-1.5439,-1.5457,-1.5474,-1.5478,-1.5395,-1.5384,-1.5374,-1.536,-1.5477,-1.5477,-1.5563,-1.5564,-1.5564]}]]